Wind_Speed
16 15 17 18 19 19 20 21 23 23 26 26 27 27 26 22 23 21 19 19 20 20 24 23 21 22 22 22 22 25 25 25 27 29 30 30 28 27 26 25 25 25 25
10 13 15 16 18 19 21 20 22 23 25 24 28 30 29 27 23 25 25 19 19 20 24 26 25 25 23 22 24 24 27 27 28 30 31 32 31 30 28 27 25 27 28
9 9 8 9 12 15 19 20 23 22 22 24 27 28 30 29 28 28 23 26 20 22 23 27 28 28 27 26 25 25 26 28 29 31 32 33 33 33 32 30 27 31 32
10 11 11 14 17 20 15 15 17 25 27 28 30 30 28 29 30 29 27 26 23 19 25 25 30 31 31 30 28 27 28 29 30 32 33 34 34 35 34 34 32 33 35
13 12 11 11 13 16 17 18 21 23 20 27 32 22 25 28 32 33 31 32 28 27 21 19 23 30 34 34 32 31 31 31 31 33 34 35 34 34 35 36 36 32 36
14 12 10 10 13 13 13 15 16 16 20 26 28 23 24 29 32 36 32 27 20 16 22 30 24 26 30 37 37 35 35 34 34 34 35 35 36 36 36 37 39 37 36
14 13 11 12 13 12 14 16 18 20 20 19 20 19 25 31 38 34 36 26 34 38 31 38 38 31 26 34 40 40 37 36 37 36 35 36 37 37 37 38 39 40 38
12 11 13 12 13 13 13 13 15 18 19 18 16 15 6 8 19 27 31 36 39 48 40 42 37 35 32 34 35 43 40 39 40 41 38 37 37 38 39 38 39 40 41
13 12 13 13 13 12 12 14 14 14 17 19 20 14 4 6 9 18 30 31 40 43 37 36 41 35 32 31 32 31 35 40 43 43 43 41 38 38 40 39 39 40 41
13 14 13 13 14 13 12 12 13 15 14 16 18 16 22 21 8 10 15 30 36 37 37 37 41 41 35 37 39 36 32 33 41 42 46 44 41 38 40 40 40 40 41
11 12 15 13 13 14 15 14 15 16 14 15 15 17 18 21 22 10 11 14 23 27 30 34 34 33 35 39 40 40 40 33 36 41 48 47 43 40 41 41 40 41 42
14 15 15 14 13 15 16 16 15 15 16 18 18 17 15 10 13 16 11 12 16 27 25 26 28 32 35 36 37 37 38 43 41 40 46 49 47 43 43 43 41 41 42
14 16 16 15 15 15 16 16 15 16 16 18 19 19 18 17 17 19 19 14 13 25 27 25 26 25 27 32 35 36 41 42 42 45 45 45 49 47 45 45 42 41 41
15 17 17 16 16 14 16 16 15 14 16 18 19 19 19 17 19 20 17 15 13 14 27 27 24 22 27 26 25 30 35 38 43 44 42 43 45 50 49 46 44 42 41
15 16 16 17 19 17 16 16 13 15 15 15 17 18 18 18 17 20 19 19 17 12 14 21 24 27 27 27 29 32 27 32 34 38 42 42 43 49 52 49 47 45 44
16 17 19 19 18 18 18 16 16 16 15 18 17 18 18 22 20 20 20 21 22 22 15 27 28 30 24 25 22 24 25 28 31 31 34 38 43 46 50 53 51 47 46
17 18 19 21 21 20 17 16 15 15 17 18 20 19 20 22 20 20 21 21 20 21 10 22 30 29 32 26 23 22 26 27 29 31 32 36 40 41 46 53 54 52 50
16 17 17 18 19 20 18 17 16 16 18 20 20 21 24 25 22 21 22 20 21 21 18 11 22 23 26 26 24 26 26 25 25 28 29 35 38 40 43 48 52 54 55
15 15 16 18 20 21 19 17 18 18 18 20 20 21 25 27 25 25 22 22 21 21 19 16 16 20 21 25 27 26 26 29 30 29 31 32 32 37 40 46 50 53 57
15 15 17 19 20 22 22 20 18 18 19 20 21 21 27 31 28 27 23 24 24 22 20 18 17 18 20 25 24 21 24 26 26 27 28 35 38 41 43 42 44 48 51
15 15 16 19 20 25 25 23 17 19 19 21 23 23 26 31 29 25 24 24 25 24 21 20 17 18 19 25 23 23 25 34 30 28 27 27 36 42 42 42 45 47 49
15 16 17 18 23 24 27 21 18 18 19 22 25 25 25 33 36 30 28 25 27 27 25 22 18 16 19 21 24 24 22 15 6 18 28 35 33 33 37 43 43 42 45
14 16 17 18 21 28 30 24 18 17 19 21 24 27 26 30 36 31 27 25 24 25 25 18 20 21 20 25 25 27 22 21 22 33 32 27 29 34 35 38 42 43 40
14 15 17 18 19 28 31 27 18 17 18 20 22 27 27 30 35 32 26 26 25 27 27 26 21 21 23 26 27 24 24 26 27 26 26 11 27 33 36 39 42 43 43
13 15 16 18 19 23 30 31 21 18 20 19 21 25 32 30 33 34 29 28 27 29 28 24 22 24 25 27 30 28 27 24 12 13 25 18 15 28 37 41 42 41 40
13 12 14 18 19 24 29 31 28 21 21 20 21 23 29 30 31 33 30 30 29 29 29 31 29 30 29 29 29 32 27 21 17 8 29 27 18 16 4 25 38 39 38
Wind_Direction
260 257 254 251 246 246 238 231 228 228 233 237 235 238 250 241 246 254 247 234 234 242 234 232 230 224 224 226 229 230 226 225 222 220 221 221 219 213 211 215 216 216 210
276 277 273 266 256 247 245 242 237 231 231 233 237 239 240 243 242 240 244 237 233 247 237 231 232 230 231 228 231 236 233 227 226 225 224 223 222 220 215 214 219 221 218
294 288 294 311 295 281 266 255 249 243 238 233 232 231 236 239 239 245 247 248 234 238 240 232 232 234 231 230 230 235 234 231 230 227 229 229 226 225 223 217 214 222 223
341 325 320 318 308 298 296 290 282 266 253 243 235 227 226 238 242 239 238 244 250 236 237 236 234 234 235 231 231 228 228 229 228 231 230 229 231 231 226 224 223 223 223
0 352 338 328 328 325 315 302 291 283 286 277 268 251 233 234 241 240 236 230 234 239 251 242 238 240 238 235 231 232 229 228 228 228 229 232 231 233 230 227 226 229 224
360 354 336 330 328 317 310 311 312 299 290 290 286 289 276 253 243 241 239 234 231 242 267 270 263 250 245 242 236 230 231 227 227 226 229 230 231 231 232 229 228 229 226
1 1 352 345 344 337 325 321 311 300 292 287 285 280 269 271 267 258 252 292 263 258 260 244 252 249 249 247 242 235 231 230 230 227 227 230 231 229 230 231 229 230 231
5 6 0 348 344 335 334 336 331 315 299 294 287 295 282 279 254 246 250 249 244 243 245 237 243 243 245 247 244 235 233 229 231 233 230 230 229 229 229 229 230 230 232
0 4 1 350 343 340 334 332 327 326 315 303 299 297 299 256 267 226 229 227 239 242 243 242 238 239 243 247 248 246 237 232 231 233 235 233 229 229 230 229 228 230 230
359 359 358 355 347 337 332 335 322 316 311 308 310 290 288 278 292 297 240 225 232 238 242 246 241 238 241 245 246 243 240 233 233 234 235 235 229 228 231 230 231 230 231
356 0 352 354 352 339 334 331 323 315 309 302 299 304 303 290 297 279 275 274 229 225 234 237 239 240 238 236 238 236 236 232 233 234 233 233 232 227 230 231 231 232 230
342 347 353 351 356 344 335 324 321 313 310 304 301 297 288 290 297 301 308 301 281 271 261 237 234 236 239 240 240 237 237 235 233 230 232 233 233 230 230 230 231 231 231
347 344 351 351 356 348 331 330 323 321 314 307 306 302 300 296 295 288 293 293 289 290 284 252 229 237 242 239 237 242 239 238 235 234 233 235 236 233 230 229 230 230 231
352 348 352 356 0 348 339 336 337 326 325 320 315 311 309 298 297 290 292 301 289 284 273 275 283 250 247 256 236 239 239 241 242 241 237 237 239 235 232 229 230 230 231
4 358 358 359 6 356 348 351 348 348 342 335 333 330 322 315 305 300 291 288 284 275 279 273 275 273 262 253 253 241 252 239 241 241 241 238 241 238 234 231 230 230 229
15 8 10 10 4 4 5 6 4 1 1 0 354 352 349 345 331 319 315 304 300 274 273 274 272 273 269 252 269 273 266 247 244 245 245 243 243 242 238 234 231 230 231
24 17 13 12 10 12 13 16 14 13 17 13 12 9 1 355 346 340 332 320 311 310 301 285 278 272 281 286 272 270 274 274 251 248 247 249 246 245 242 237 234 232 231
25 19 14 16 17 17 14 20 21 23 24 23 17 13 9 5 1 355 348 336 333 328 323 310 301 286 283 276 278 275 274 271 262 252 250 251 248 250 248 242 238 237 235
32 24 20 22 21 19 15 17 24 28 28 26 20 17 13 10 8 2 2 356 350 338 331 313 305 306 315 290 279 270 265 264 261 256 249 251 255 255 255 248 243 240 236
27 26 24 22 22 21 18 12 21 26 26 24 21 19 18 14 11 11 10 7 359 353 351 345 332 339 344 319 340 317 305 278 262 252 248 245 254 256 258 254 248 243 244
29 29 31 26 24 23 17 14 19 25 25 24 23 21 17 14 12 17 18 16 14 10 4 0 360 355 352 352 355 332 324 318 306 256 247 249 256 254 250 247 247 245 243
32 29 32 29 27 22 15 20 25 27 27 27 23 19 17 13 10 11 15 20 25 21 15 9 2 359 352 346 338 336 325 332 309 294 252 251 244 239 247 246 243 243 244
38 34 33 30 28 22 16 15 23 29 30 28 26 21 19 15 13 9 10 16 18 21 22 12 8 4 351 349 341 329 326 309 285 292 298 270 236 238 240 245 250 248 245
45 40 37 33 29 24 19 18 22 31 32 31 29 24 22 16 16 13 10 11 13 15 13 11 9 2 358 358 357 339 327 323 316 308 307 268 247 237 244 243 248 250 247
46 43 38 36 31 26 21 22 25 26 25 29 27 26 23 16 14 17 14 9 7 8 7 8 9 7 10 10 9 1 356 347 340 325 5 337 305 241 236 237 239 243 241
46 43 42 36 31 27 23 24 26 25 23 20 22 20 18 16 16 19 17 11 7 0 1 1 4 8 8 6 9 11 359 353 349 327 357 347 328 338 297 236 237 236 236
Height
777 778 776 776 776 777 778 779 781 783 784 786 786 785 787 787 789 788 787 786 788 792 795 797 799 800 802 805 808 810 813 816 820 823 825 828 830 832 835 837 841 844 846
775 776 775 775 774 773 774 774 776 778 778 779 780 780 779 780 782 785 785 783 785 787 789 791 793 795 798 800 803 805 808 812 814 818 820 823 826 830 832 835 837 841 844
774 774 774 774 773 772 771 771 771 772 772 772 770 772 774 776 777 778 780 782 781 781 782 785 787 790 791 794 796 799 802 806 810 812 815 819 822 825 829 831 833 835 839
774 774 774 773 773 771 770 770 769 766 768 766 759 758 759 767 770 772 775 775 775 776 775 777 780 781 785 786 788 790 794 798 802 806 809 811 815 819 823 827 829 831 835
775 775 775 775 773 771 770 769 768 767 764 759 758 746 749 756 763 764 764 764 767 769 772 773 772 775 778 780 780 783 786 790 794 798 802 806 809 812 817 821 824 827 830
777 776 776 775 774 772 770 769 768 766 763 759 753 748 749 753 754 755 758 757 759 766 771 772 772 768 770 774 775 774 777 780 785 789 794 798 802 805 810 814 818 822 824
780 778 777 775 773 772 772 770 769 766 763 760 758 752 750 751 749 749 741 723 752 754 760 765 766 763 762 767 769 769 770 772 777 781 785 790 794 797 800 805 810 815 819
782 780 779 777 775 774 772 771 771 768 764 761 758 756 750 747 744 741 742 738 740 746 743 750 754 753 757 762 760 761 763 764 768 774 776 781 785 789 792 796 801 806 812
784 781 779 778 776 775 773 772 772 770 765 762 760 757 751 743 738 736 732 732 735 734 738 741 742 746 748 752 754 751 754 755 759 764 769 773 777 781 786 788 792 797 802
786 783 781 778 777 775 774 771 772 771 768 763 761 758 754 751 749 737 732 729 728 732 734 733 735 736 738 744 744 746 745 747 751 755 761 765 768 773 778 781 785 788 793
787 784 782 778 776 777 774 771 770 770 767 763 762 760 757 750 748 744 737 728 725 724 724 726 727 727 730 733 736 736 737 737 743 746 751 755 758 761 769 773 776 779 783
790 787 782 779 775 775 773 772 768 767 764 762 760 759 757 755 748 745 739 732 726 720 718 716 716 718 722 724 726 727 726 729 733 737 741 747 749 752 758 763 767 770 775
792 789 783 780 775 774 774 769 767 764 763 761 758 756 754 752 750 748 745 737 730 719 714 708 708 711 712 715 716 719 720 721 724 728 733 738 741 744 747 753 757 762 766
792 789 785 780 775 775 772 769 764 764 761 760 757 753 751 750 748 745 743 739 730 721 714 708 705 704 705 705 704 710 711 713 716 719 723 728 731 735 739 742 747 751 757
792 790 787 783 775 774 773 768 766 763 762 760 756 752 749 746 745 742 739 737 733 724 712 706 703 702 702 701 701 702 703 704 706 710 715 720 723 726 729 733 737 740 746
793 791 786 783 780 776 772 769 766 765 763 759 755 752 749 745 742 739 735 732 730 723 712 712 703 702 697 695 694 695 697 697 699 701 706 710 714 716 719 724 727 730 735
794 793 790 785 782 778 776 772 771 768 764 760 758 755 752 746 741 736 732 729 725 722 709 701 700 695 692 690 689 691 691 692 692 694 697 701 705 706 708 712 716 719 724
796 795 795 792 788 784 780 776 774 770 766 762 760 757 752 747 742 736 731 728 724 720 715 706 699 692 690 689 686 688 688 689 688 689 691 693 694 695 698 700 705 710 714
799 800 799 795 792 787 785 780 775 771 768 765 762 760 755 749 742 738 733 729 725 720 715 710 702 695 691 688 686 684 683 683 681 682 683 684 685 687 688 691 693 696 701
804 802 800 798 795 791 787 781 778 774 772 769 766 762 758 752 746 741 735 731 726 721 716 712 704 698 695 687 682 681 677 673 671 674 673 676 679 679 680 682 684 686 690
809 807 803 802 799 794 791 785 782 779 776 772 768 763 760 757 752 746 740 735 730 724 720 714 711 707 703 698 697 692 688 679 670 668 668 666 666 666 668 670 672 674 677
812 810 806 805 801 798 795 789 787 783 780 776 771 767 762 757 752 747 742 738 732 727 725 722 722 719 712 710 704 699 694 685 676 665 661 658 659 657 657 658 660 662 665
815 815 811 809 807 801 797 791 789 787 783 780 776 773 767 763 757 751 746 742 739 736 733 732 728 725 720 715 709 701 695 691 683 667 668 651 650 646 648 646 650 652 654
819 818 815 813 810 806 803 796 793 789 786 784 781 779 774 769 763 757 752 748 743 740 737 734 732 728 723 718 711 704 696 685 673 666 664 651 640 636 637 639 640 642 644
821 820 819 817 815 811 807 800 795 792 789 787 784 781 776 774 769 760 757 753 748 743 740 738 733 728 722 716 711 704 697 688 676 668 666 661 644 633 628 629 631 633 635
824 823 822 820 819 814 811 804 799 795 792 790 786 784 782 779 773 765 763 758 752 748 742 736 731 726 723 718 713 707 701 696 689 674 667 665 652 650 629 619 622 623 626